Location: Peterborough
(44.3091°N, 78.3197°W)
Time: 06:12:55
(UTC-04:00)

Vanguard 3 - Pass Details

Date: 26 March 2023
Orbit: 507 x 3246 km, 33.4° (Epoch: 04 June)

Event Time Altitude Azimuth Distance (km) Brightness Sun altitude
Rises 05:24:49 0° 248° (WSW) 6,925 - -18.4°
Reaches altitude 10° 05:29:21 10° 245° (WSW) 6,063 - -17.6°
Exits shadow 05:33:12 19° 241° (WSW) 5,355 10.6 -17.0°
Maximum altitude 05:48:25 57° 174° (S) 3,462 10.2 -14.4°
Drops below altitude 10° 06:03:52 10° 102° (ESE) 5,036 12.3 -11.8°
Sets 06:07:14 0° 98° (E) 5,739 12.9 -11.2°
